sat.trackr.live / text

‹ back to catalog

METOP-C

NORAD 43689 · 2018-087A

PAYLOAD ACTIVE UNKNOWN

§ Identity

Operator
Country
EUME
Launch date
2018-11-07
Launch site
FRGUI
Launch vehicle
Mass (kg)
RCS (m²)

Purposes: earth_obs

External: N2YO · Heavens-Above · Gunter

§ Orbital elements

Epoch: 2026-05-25T02:55:14.954304Z

Period
101.30 min
Inclination
98.6655°
Eccentricity
0.0000773
Mean motion
14.21504906 rev/d
Perigee alt
819.7 km
Apogee alt
820.8 km
Semi-major
7,198.4 km
B*
5.7139e-5
RAAN
205.1453°
Arg perigee
151.2544°
Mean anomaly
208.8676°
Rev number
39,155

§ Raw data

METOP-C1 43689U 18087A   26145.12170086  .00000082  00000+0  57139-4 0  99952 43689  98.6655 205.1453 0000773 151.2544 208.8676 14.21504906391552

JSON: /api/v1/satellites/43689 · /tle

For live sub-satellite position, see the globe view (requires WebGL).

§ Visibility from observer

Set your observer location to see the next 7 days of passes ≥ 10°. The values pass through the URL so the page stays shareable.

No JS? Fill the form by hand. The geolocation button needs JavaScript.

§ Radio — SatNOGS DB

ModeDescriptionDownlinkUplink
AHRPT AHRPT Prime 1.701 GHz
BPSK PMT-A3 ARGOS-3 A-DCS 465.988 MHz
FM Mode X (active over Norway) 7.800 GHz
PSK Telemetry 2.230 GHz

4 transmitters · refreshed weekly from db.satnogs.org